Location: Unspecified
(0.0000°N, 0.0000°E)
Time: 20:05:03
(UTC+00:00)

OTV 5 (USA 277) - Pass Details

Date: 20 January 2018
Orbit: 404 x 417 km, 43.0° (Epoch: 07 September)

Event Time Altitude Azimuth Distance (km) Brightness Sun altitude
Exits shadow 04:18:09 21° 79° (E) 967 ? -26.3°
Drops below altitude 10° 04:19:47 10° 104° (ESE) 1,448 ? -26.0°
Sets 04:22:05 0° 117° (ESE) 2,309 ? -25.4°
